{"data":{"norad_id":66637,"intl_designator":"2025-271W","name":"STARLINK-35953","alt_names":[],"object_type":"PAYLOAD","status":"ACTIVE","operator":null,"country":"US","launch_date":"2025-11-23","launch_site_code":"AFWTR","launch_vehicle":null,"mission":null,"orbit_class":"UNKNOWN","rcs_meters":null,"size_class":null,"mass_kg":null,"dimensions":null,"purposes":["comms"],"wikipedia_slug":null,"has_3d_model":false,"image_url":null,"decayed_at":null,"tle_current":{"epoch":"2026-05-25T03:29:56.713920Z","epoch_age_seconds":59765,"freshness":"FRESH","line1":"1 66637U 25271W   26145.14579530  .00020086  00000+0  60377-3 0  9998","line2":"2 66637  53.1588 143.3013 0001264 101.3497 258.7647 15.34412265 29297","mean_motion":15.34412265,"eccentricity":0.0001264,"inclination_deg":53.1588,"raan_deg":143.3013,"arg_perigee_deg":101.3497,"mean_anomaly_deg":258.7647,"bstar":0.00060377,"rev_number":2929,"period_min":93.847007929124,"perigee_km":461.80210868661,"apogee_km":463.53146388379,"semimajor_km":6840.8037862852,"source":"CELESTRAK","updated_at":"2026-05-25T13:38:21.298337Z"}}}